User: anonymous   Login
Location: St Andrew
(49.4460°N, 2.5750°W)
Time: 08:21:23
(UTC+01:00)
Language:

Iridium 66 - Orbit

View from above orbital plane
View from above orbital plane
View from above satellite
View from above satellite

Ground track
Ground track

The orbit data is extracted from the following two-line orbital elements,

1 25289U 98021E   15211.41823100  .00000220  00000-0  71540-4 0  9990
2 25289 086.4004 151.2883 0002421 085.1011 054.2990 14.34216098906432
Epoch (UTC): 30 July 2015 10:02:15
Eccentricity: 0.0002421
inclination: 86.4004°
perigee height: 776 km
apogee height: 779 km
right ascension of ascending node: 151.2883°
argument of perigee: 85.1011°
revolutions per day: 14.34216098
mean anomaly at epoch: 54.2990°
orbit number at epoch: 90643

The dashed part of the orbit path shows where the satellite is in the earth's shadow,  

DLR